This demonstration page uses our WeatherBlox Daily Observations layout. Learn more.

39.92423, -83.80882

Hourly Observations for December 7, 2017

Temp ( °F °C ) Dew Point ( °F °C ) Humidity (%) Winds ( mph kmh ) Pressure ( in mb ) Visibility ( mi km ) Precip ( " mm )
12:56 am 00:56 Clear 31 -0.6 24 -4.4 76 76 SW 9 15 30.09 1019 10 16.0934 0 0
1:56 am 01:56 Cloudy 34 1.1 24 -4.4 67 67 WSW 12 19 30.08 1019 10 16.0934 0 0
2:56 am 02:56 Mostly Cloudy 33 0.6 24 -4.4 70 70 WSW 10 17 30.09 1019 10 16.0934 0 0
3:56 am 03:56 Clear 31 -0.6 25 -3.9 79 79 WSW 9 15 30.08 1019 10 16.0934 0 0
4:56 am 04:56 Clear 29 -1.7 24 -4.4 82 82 SW 7 11 30.08 1019 10 16.0934 0 0
5:31 am 05:31 Mostly Cloudy 30 -1 27 -3 86 86 WSW 9 15 30.09 1019 10 16.0934 0 0
5:56 am 05:56 Cloudy 31 -0.6 26 -3.3 82 82 WSW 9 15 30.08 1019 10 16.0934 0 0
6:28 am 06:28 Cloudy 30 -1 27 -3 86 86 WSW 10 17 30.12 1020 10 16.0934 0 0
6:43 am 06:43 Cloudy 30 -1 27 -3 86 86 W 10 17 30.12 1020 10 16.0934 0 0
6:56 am 06:56 Cloudy 31 -0.6 26 -3.3 82 82 WNW 10 17 30.09 1019 10 16.0934 0 0
7:56 am 07:56 Cloudy 30 -1.1 23 -5 75 75 WNW 9 15 30.11 1020 10 16.0934 0 0.0254
8:24 am 08:24 Cloudy 30 -1 23 -5 75 75 W 12 19 30.12 1020 9 14.48406 0 0.0254
8:56 am 08:56 Cloudy 30 -1.1 23 -5 75 75 W 13 20 30.12 1020 10 16.0934 0 0.0254
9:56 am 09:56 Cloudy 31 -0.6 20 -6.7 64 64 W 20 31 30.13 1020 10 16.0934 0 0.0254
10:33 am 10:33 Mostly Cloudy 30 -1 21 -6 69 69 WNW 16 26 30.15 1021 10 16.0934 0 0
10:56 am 10:56 Mostly Cloudy 30 -1.1 21 -6.1 69 69 WNW 17 28 30.15 1021 10 16.0934 0 0
11:56 am 11:56 Cloudy 28 -2.2 20 -6.7 72 72 WNW 17 28 30.15 1021 10 16.0934 0 0
12:56 pm 12:56 Cloudy with Light Snow 26 -3.3 20 -6.7 78 78 WNW 16 26 30.14 1021 9 14.48406 0 0.0254
1:56 pm 13:56 Cloudy with Light Snow 26 -3.3 19 -7.2 75 75 W 14 22 30.14 1021 9 14.48406 0 0.0254
2:56 pm 14:56 Cloudy with Light Snow 25 -3.9 18 -7.8 75 75 W 18 30 30.15 1021 9 14.48406 0 0.0254
3:56 pm 15:56 Cloudy with Light Snow 24 -4.4 17 -8.3 75 75 W 17 28 30.17 1022 9 14.48406 0 0.0254
4:56 pm 16:56 Cloudy with Light Snow 24 -4.4 16 -8.9 71 71 W 16 26 30.18 1022 9 14.48406 0 0.0254
5:56 pm 17:56 Cloudy 24 -4.4 16 -8.9 71 71 W 12 19 30.2 1023 10 16.0934 0 0.0254
6:56 pm 18:56 Cloudy 24 -4.4 16 -8.9 71 71 W 15 24 30.21 1023 10 16.0934 0 0
7:56 pm 19:56 Cloudy 23 -5 15 -9.4 72 72 W 10 17 30.22 1023 10 16.0934 0 0
8:56 pm 20:56 Mostly Cloudy 22 -5.6 15 -9.4 75 75 W 8 13 30.21 1023 10 16.0934 0 0
9:03 pm 21:03 Partly Cloudy 21 -6 16 -9 80 80 W 7 11 30.24 1024 10 16.0934 0 0
9:56 pm 21:56 Clear 19 -7.2 14 -10 81 81 WSW 5 7 30.2 1023 10 16.0934 0 0
10:56 pm 22:56 Clear 19 -7.2 14 -10 81 81 SSW 6 9 30.2 1023 10 16.0934 0 0
11:56 pm 23:56 Clear 18 -7.8 14 -10 84 84 SSW 7 11 30.2 1023 10 16.0934 0 0

Powered by AerisWeather